Hourly Weather Roundup
Issued by NWS Central Illinois

Home | Current Version | Previous Version | Text Only | Print | Product List | Glossary On
Versions: 1 2 3 4 5 6 7 8 9 10 11 12 13 14 15 16 17 18 19 20 21 22 23 24 25 26 27 28 29 30 31 32 33 34 35 36 37 38 39 40 41 42 43 44 45 46 47 48 49 50
000
NZUS43 KILX 290610
HWRILX

AREA WEATHER ROUNDUP
NATIONAL WEATHER SERVICE, LINCOLN IL
100 AM CDT FRI JUL 29 2016


CITY           SKY/WX    TMP DP  RH WIND       PRES   REMARKS
BLOOMINGTON    CLEAR     70  69  97 E5        29.93F
6HR MIN TEMP:  69; 6HR MAX TEMP:  77;

CHAMPAIGN      CLOUDY    72  70  93 CALM      29.92S
6HR MIN TEMP:  70; 6HR MAX TEMP:  79;

DANVILLE       PTCLDY    68  67  99 CALM      29.89S FOG
6HR MIN TEMP:  67; 6HR MAX TEMP:  77;

DECATUR        CLEAR     70  68  93 CALM      29.91F
6HR MIN TEMP:  69; 6HR MAX TEMP:  82;

EFFINGHAM      CLEAR     69  69 100 CALM      29.93F FOG
FLORA          FOG       73  72  98 CALM      29.92S VSB 1/4
6HR MIN TEMP:  73; 6HR MAX TEMP:  81; 6HR PCP:  0.01;

GALESBURG      CLEAR     67  66  95 W3        29.94R
JACKSONVILLE   CLEAR     68  67  94 CALM      29.93S
6HR MIN TEMP:  68; 6HR MAX TEMP:  82;

LACON          MOCLDY    71  69  94 CALM      29.91S
6HR MIN TEMP:  70; 6HR MAX TEMP:  76;

LAWRENCEVILLE  CLEAR     71  69  93 CALM      29.91F
6HR MIN TEMP:  70; 6HR MAX TEMP:  77;

LITCHFIELD       N/A    N/A N/A N/A MISG        N/A
$$


CITY           SKY/WX    TMP DP  RH WIND       PRES   REMARKS
LINCOLN        CLEAR     70  70 100 CALM      29.92S
6HR MIN TEMP:  70; 6HR MAX TEMP:  77;

MACOMB         CLEAR     66  65  96 W5        29.96S
MATTOON        CLEAR     68  66  93 CALM      29.91S
6HR MIN TEMP:  67; 6HR MAX TEMP:  73;

MT CARMEL AP   CLEAR     69  67  96 CALM      29.91S FOG
6HR MIN TEMP:  69; 6HR MAX TEMP:  74;

OLNEY-NOBLE AP CLEAR     70  70 100 CALM      29.92S
PARIS          PTCLDY    69  69 100 CALM      29.92S FOG
6HR MIN TEMP:  69; 6HR MAX TEMP:  81;

PEORIA         CLEAR     71  68  90 W5        29.92S
6HR MIN TEMP:  71; 6HR MAX TEMP:  79;

PONTIAC        CLEAR     69  69 100 CALM      29.92S FOG
RANTOUL        PTCLDY    72  72 100 CALM      29.91F FOG
ROBINSON       CLEAR     69  69  99 SW3       29.92S
6HR MIN TEMP:  69; 6HR MAX TEMP:  81;

SPRINGFIELD    CLEAR     73  69  87 NW3       29.93R
6HR MIN TEMP:  72; 6HR MAX TEMP:  84;

TAYLORVILLE    CLEAR     70  70  99 MISG      29.93S
$$

...REGIONAL REPORTS...


CITY           SKY/WX    TMP DP  RH WIND       PRES   REMARKS
CHICAGO O`HARE MOCLDY    70  68  93 N9        29.92R
KANKAKEE       CLEAR     70  69  95 CALM      29.92S FOG
MOLINE         CLEAR     72  67  84 W6        29.91F
MOUNT STERLING CLEAR     68  65  92 W5        29.94S
MOUNT VERNON   CLEAR     72  66  83 MISG      29.92S
PITTSFIELD     CLEAR     70  67  92 W3        29.95F
QUINCY         CLEAR     70  68  93 W3        29.95S
ROCKFORD       CLOUDY    71  65  81 NE7       29.95S
$$


CITY           SKY/WX    TMP DP  RH WIND       PRES   REMARKS
BURLINGTON     CLEAR     67  66  97 NW6       29.94S
CEDAR RAPIDS   CLOUDY    68  67  96 NW6       29.96R
DES MOINES     CLOUDY    70  65  84 N8        29.99S
KIRKSVILLE     CLOUDY    64  62  93 NW5       29.99S
OTTUMWA        CLOUDY    64  62  93 NW7       29.97S
ST LOUIS       PTCLDY    78  70  76 NW5       29.94R HX  80
$$


CITY           SKY/WX    TMP DP  RH WIND       PRES   REMARKS
TERRE HAUTE    CLEAR     70  68  93 CALM      29.91F
EVANSVILLE     PTCLDY    71  70  96 CALM      29.91S
INDIANAPOLIS   MOCLDY    73  69  87 W3        29.92S
LAFAYETTE      MOCLDY    69  69 100 CALM      29.90F FOG
MADISON        CLOUDY    67  60  78 NE7       29.98R
MILWAUKEE      CLOUDY    69  64  84 N15G22    29.95S
$$





USA.gov is the U.S. government's official web portal to all federal, state and local government web resources and services.